Regional Weather Roundup
Issued by NWS

Home | Current Version | Previous Version | Text Only | Print | Product List | Glossary Off
Versions: 1 2 3 4 5 6 7 8 9 10 11 12 13 14 15 16 17 18 19 20 21 22 23 24 25 26 27 28 29 30 31 32 33 34 35 36 37 38 39 40 41 42 43 44 45 46 47 48 49 50

000
ASUS43 KLMK 051702
RWRKY
KENTUCKY REGIONAL WEATHER ROUNDUP
NATIONAL WEATHER SERVICE LOUISVILLE KY
1200 PM EST MON DEC 05 2016

NOTE "FAIR" INDICATES FEW OR NO CLOUDS BELOW 12,000 FEET
WITH NO SIGNIFICANT WEATHER AND/OR OBSTRUCTIONS TO VISIBILITY.

KYZ001>023-026-027-061>063-070>075-051800-
WESTERN AND SOUTH CENTRAL KENTUCKY

CITY           SKY/WX    TMP DP  RH WIND       PRES   REMARKS
PADUCAH        CLOUDY    42  35  76 E10       30.05F
HENDERSON      CLOUDY    39  32  75 E8        30.08F WCI  34
OWENSBORO      CLOUDY    41  34  76 E8        30.09F
HOPKINSVILLE   CLOUDY    40  36  86 E9        30.06F WCI  33
BOWLING GREEN  CLOUDY    42  36  79 E7        30.10F
GLASGOW        NOT AVBL
$$

KYZ024-025-028>034-038-045-046-053-051800-
NORTH CENTRAL KENTUCKY

CITY           SKY/WX    TMP DP  RH WIND       PRES   REMARKS
LOUISVILLE/SDF CLOUDY    42  32  67 SE5       30.10F
LOUISVILLE/LOU CLOUDY    42  32  67 E5        30.11
FORT KNOX      CLOUDY    42  33  72 NE8       30.07F
$$

KYZ035>037-039>044-047>052-055>060-089>105-051800-
NORTHEAST KENTUCKY

CITY           SKY/WX    TMP DP  RH WIND       PRES   REMARKS
LEXINGTON      CLOUDY    43  33  68 E5        30.10F
COVINGTON      PTSUNNY   41  32  70 N5        30.11F
FRANKFORT      CLOUDY    42  33  70 E6        30.10
$$

KYZ054-064>069-076>088-106>120-051800-
SOUTHEAST KENTUCKY

CITY           SKY/WX    TMP DP  RH WIND       PRES   REMARKS
JACKSON        PTSUNNY   46  36  68 CALM      30.08
LONDON         CLOUDY    47  39  74 E7        30.06
SOMERSET       NOT AVBL
MIDDLESBORO    CLOUDY    48  43  82 CALM      30.07F
MONTICELLO     CLOUDY    46  40  79 VRB5      30.08F
$$





USA.gov is the U.S. government's official web portal to all federal, state and local government web resources and services.